Regional Weather Roundup
Issued by NWS

Home | Current Version | Previous Version | Text Only | Print | Product List | Glossary Off
Versions: 1 2 3 4 5 6 7 8 9 10 11 12 13 14 15 16 17 18 19 20 21 22 23 24 25 26 27 28 29 30 31 32 33 34 35 36 37 38 39 40 41 42 43 44 45 46 47 48 49 50

000
ASUS43 KLMK 271202
RWRKY
KENTUCKY REGIONAL WEATHER ROUNDUP
NATIONAL WEATHER SERVICE LOUISVILLE KY
800 AM EDT MON MAR 27 2017

NOTE "FAIR" INDICATES FEW OR NO CLOUDS BELOW 12,000 FEET
WITH NO SIGNIFICANT WEATHER AND/OR OBSTRUCTIONS TO VISIBILITY.

KYZ001>023-026-027-061>063-070>075-271300-
WESTERN AND SOUTH CENTRAL KENTUCKY

CITY           SKY/WX    TMP DP  RH WIND       PRES   REMARKS
PADUCAH        TSTM      57  51  80 S7        29.92R
HENDERSON      CLOUDY    50  45  81 E6        29.91S
OWENSBORO      CLOUDY    51  48  89 E3        29.94S
HOPKINSVILLE   LGT RAIN  55  54  96 S10       29.95R
BOWLING GREEN  CLOUDY    51  50  96 CALM      29.96S FOG
GLASGOW        NOT AVBL
$$

KYZ024-025-028>034-038-045-046-053-271300-
NORTH CENTRAL KENTUCKY

CITY           SKY/WX    TMP DP  RH WIND       PRES   REMARKS
LOUISVILLE/SDF CLOUDY    53  48  83 E3        29.96F
LOUISVILLE/LOU CLOUDY    52  47  83 CALM      29.97F
FORT KNOX      CLOUDY    50  49  99 E3        29.95S
$$

KYZ035>037-039>044-047>052-055>060-089>105-271300-
NORTHEAST KENTUCKY

CITY           SKY/WX    TMP DP  RH WIND       PRES   REMARKS
LEXINGTON      PTCLDY    53  50  89 SE7       29.99R
COVINGTON      PTCLDY    44  44 100 CALM      29.99R
FRANKFORT      CLEAR     50  47  89 CALM      29.98R FOG
$$

KYZ054-064>069-076>088-106>120-271300-
SOUTHEAST KENTUCKY

CITY           SKY/WX    TMP DP  RH WIND       PRES   REMARKS
JACKSON        CLOUDY    57  53  86 S3        30.02S
LONDON         PTCLDY    50  47  89 CALM      30.01S
SOMERSET       NOT AVBL
MIDDLESBORO    CLEAR     45  45 100 CALM      30.06S
MONTICELLO     CLOUDY    50  48  93 W9        30.02R
$$




USA.gov is the U.S. government's official web portal to all federal, state and local government web resources and services.